Location: Horowhenua
(40.7500°S, 175.3333°E)
Time: 06:12:33
(UTC+00:00)

Cosmos 1934 Rocket - Pass Details

Date: 28 January 2023
Orbit: 937 x 999 km, 83.0° (Epoch: 01 April)

Event Time Altitude Azimuth Distance (km) Brightness Sun altitude
Exits shadow 13:00:57 60° 101° (E) 1,075 4.2 -30.7°
Drops below altitude 10° 13:06:42 10° 166° (SSE) 2,687 7.2 -30.5°
Sets 13:09:14 0° 169° (SSE) 3,643 8.2 -30.4°
